Regional Weather Roundup
Issued by NWS Binghamton, NY

Home | Current Version | Previous Version | Text Only | Print | Product List | Glossary On
Versions: 1 2 3 4 5 6 7 8 9 10 11 12 13 14 15 16 17 18 19 20 21 22 23 24 25 26 27 28 29 30 31 32 33 34 35 36 37 38 39 40 41 42 43 44 45 46 47 48 49
000
ASUS41 KBGM 022210
RWRBGM
RWRBGM
BINGHAMTON REGIONAL WEATHER ROUNDUP
NATIONAL WEATHER SERVICE BINGHAMTON NY
600 PM EDT WED SEP 02 2015

Note: "fair" indicates few or no clouds below 12,000 feet with no
significant weather and/or obstructions to visibility.

* = Station(s) that does not report precipitation, such as rain,
snow, etc, also no thunder or fog.

!NYZ009-015>018-022>025-036-037-044>046-055>057-062-022300
...CENTRAL NEW YORK...

CITY           SKY/WX    TMP DP  RH WIND       PRES   REMARKS
BINGHAMTON     SUNNY     80  65  59 NW5       30.00S
CORTLAND       FAIR      81  66  61 NW5       29.99F
DANSVILLE      MOSUNNY   86  66  51 NW8       29.95F HX  88
ELMIRA         SUNNY     85  68  56 NE10      29.95S HX  88
ITHACA         SUNNY     82  67  60 N3        29.99S
HORNELL        SUNNY     82  64  54 NW6         N/A
MONTICELLO     SUNNY     81  63  54 NW7       29.99S
NORWICH        SUNNY     81  64  57 CALM      29.97F
ONEONTA        SUNNY     77  61  57 W6        30.00S
PENN YAN       MOSUNNY   83  67  58 N5        29.97F HX  85
ROME           MOSUNNY   80  68  66 W8        29.95F
SIDNEY         MOSUNNY   82  72  69 CALM      29.97S HX  87
SYRACUSE       PTSUNNY   82  70  66 N8        29.94S HX  86
$$

!PAZ038>040-043-044-047-048-072-022300
...NORTHEAST PENNSYLVANIA...

CITY           SKY/WX    TMP DP  RH WIND       PRES   REMARKS
HAZLETON       PTSUNNY   81  63  54 N7        30.02F
SCRANTON       SUNNY     86  64  47 NW8       29.95F HX  87
TOWANDA*       SUNNY     82  68  61 MISG      29.96F HX  85
$$
&&
KEY
WCI = WIND CHILL INDEX
VSB = VISIBILITY
HX  = HEAT INDEX
$$



USA.gov is the U.S. government's official web portal to all federal, state and local government web resources and services.